Wind_Speed
5 4 7 8 6 6 7 7 8 7 8 8 7 6 8 8 8 10 8 6 8 9 11 15 14 16 21 21 21 21 19 18 18 18 17 16 15 15 16 16 17 17 16 18 25 28 31 32 32 34 35 35 35 37 39 40 40 40 39 38 36 37 38 38 37 35 34 33 31 30 30 30 29 28 27 26 25 24 22 21 21 22 21 19 19 18
6 8 10 9 7 7 7 7 8 9 10 9 8 7 8 8 10 11 7 6 8 7 8 12 14 15 20 20 20 21 19 18 19 19 18 19 18 15 17 19 19 16 14 15 20 23 28 31 31 33 34 35 35 36 40 42 41 40 39 39 38 38 39 39 39 37 35 35 34 32 31 31 30 29 28 27 26 25 24 22 22 23 22 20 20 18
7 9 11 9 8 8 7 8 8 10 11 9 8 7 8 9 8 10 8 8 8 7 6 11 13 12 17 18 18 21 20 17 20 21 20 20 19 16 18 19 18 16 13 15 17 19 25 31 32 32 34 37 39 38 39 40 41 40 40 40 40 39 41 41 40 39 36 35 35 33 31 31 30 30 29 27 26 25 25 23 22 23 23 22 21 19
7 7 10 10 8 9 9 9 9 9 9 9 8 6 9 11 6 6 7 6 8 8 8 12 10 7 11 13 15 19 19 17 19 22 20 21 20 19 20 19 18 18 17 17 18 17 21 28 30 31 33 37 38 38 39 39 40 41 41 41 41 41 41 41 41 40 37 34 34 33 31 31 29 28 28 27 26 25 25 25 24 24 23 22 21 20
7 5 9 11 11 12 11 11 11 8 6 9 11 10 11 13 8 8 7 5 6 6 5 9 5 1 7 11 13 14 15 16 19 20 19 19 20 20 20 19 19 20 19 19 20 18 18 23 29 32 34 35 36 38 40 42 42 43 43 43 43 42 42 41 41 41 37 34 33 31 29 28 26 25 26 26 27 26 27 27 25 24 24 23 21 21
9 6 9 13 13 13 13 11 12 10 6 8 12 14 16 16 11 11 9 4 3 4 3 8 5 3 6 11 15 12 11 14 16 18 19 18 18 18 17 18 18 19 19 20 21 20 18 21 28 32 33 33 35 38 42 44 45 43 43 43 42 42 42 42 41 41 39 35 34 32 29 28 26 24 26 29 30 29 29 28 26 25 24 23 22 22
9 10 10 13 14 15 14 11 13 12 7 7 10 13 17 18 14 13 11 4 2 4 5 9 8 4 4 8 13 14 13 15 15 17 19 17 17 17 16 17 17 17 17 18 20 20 19 21 24 27 32 35 36 40 43 43 44 42 41 42 43 43 42 42 42 41 40 38 36 35 33 32 30 28 29 32 32 31 31 29 27 25 25 24 23 23
8 13 12 13 14 14 13 10 12 12 8 8 8 9 13 16 16 16 13 7 5 4 5 8 8 4 5 9 13 15 15 14 14 17 18 17 18 19 18 18 18 19 18 17 18 19 20 20 23 28 33 38 38 40 40 40 42 42 41 43 43 43 42 42 42 43 42 39 38 37 35 33 33 33 32 32 33 32 31 29 27 26 25 25 24 23
8 13 16 15 12 10 10 11 13 12 10 9 7 8 11 13 15 15 11 8 6 4 5 7 6 3 5 8 10 13 15 15 16 18 18 18 20 21 20 20 20 21 20 19 19 20 20 21 27 33 37 40 40 39 39 41 43 43 42 42 42 41 41 42 43 43 43 41 39 38 36 33 33 34 32 32 32 32 31 29 28 28 27 27 26 24
6 10 15 15 12 9 9 12 14 13 11 9 8 8 10 11 12 11 9 8 5 6 6 8 7 4 5 4 8 9 11 14 15 16 18 18 20 21 21 21 21 20 18 19 20 20 22 26 32 37 39 40 40 41 43 44 43 42 42 41 41 40 41 42 43 44 43 41 39 38 37 35 34 33 31 31 32 32 31 30 29 29 29 28 28 26
7 6 8 11 11 10 10 11 13 15 14 10 7 8 8 8 7 5 5 4 5 6 7 10 12 8 6 4 8 10 14 18 16 14 16 16 18 20 20 20 20 19 17 18 19 19 22 29 35 36 35 38 39 41 42 42 42 43 42 42 43 42 41 42 43 44 44 42 40 39 38 37 36 34 31 30 31 32 31 30 30 30 30 30 29 28
10 8 6 6 8 11 10 10 12 15 17 11 6 6 6 6 5 5 3 2 5 7 7 10 13 13 9 6 8 13 18 22 19 17 18 18 18 19 19 19 19 19 18 18 18 18 19 23 27 28 31 35 37 37 38 40 41 42 43 43 43 42 42 42 43 44 43 42 41 40 39 38 37 36 34 33 33 33 33 32 31 31 31 31 30 29
8 10 9 7 8 10 10 8 9 11 13 11 7 6 6 4 4 6 6 3 5 6 6 9 12 12 10 7 11 17 18 19 19 18 20 22 20 18 18 19 18 18 18 18 17 17 17 17 18 21 26 31 33 35 38 40 40 41 43 44 44 43 43 43 43 44 43 42 41 40 40 40 38 36 36 35 35 34 34 33 33 33 33 33 32 31
4 6 10 11 9 9 10 8 7 7 9 11 8 7 7 6 6 7 6 4 4 5 6 8 9 6 5 6 11 17 20 19 19 19 21 23 22 20 19 19 18 18 18 17 17 17 16 17 17 20 26 30 33 36 38 39 40 40 41 43 44 44 45 44 43 44 44 43 42 41 41 40 39 37 37 37 36 35 34 34 34 35 36 35 34 33
7 6 8 12 8 7 11 10 8 7 8 10 8 7 6 6 6 6 4 4 4 5 5 5 6 5 4 6 11 17 19 18 18 20 21 20 20 18 16 17 17 17 18 16 17 18 18 19 20 22 27 31 33 37 38 39 40 40 40 43 44 43 44 44 43 44 44 43 42 41 40 40 40 39 37 37 36 36 36 35 35 36 37 36 34 35
10 9 8 11 8 8 11 9 8 7 6 8 6 6 7 7 5 3 4 5 4 3 4 4 4 5 5 6 10 16 18 18 19 20 18 16 16 15 13 15 16 16 17 17 17 18 19 20 20 23 27 30 33 36 37 39 40 41 41 42 44 44 44 44 44 43 43 43 42 41 41 40 40 39 38 37 36 36 37 36 36 37 37 36 35 35
8 9 8 9 9 12 12 8 9 9 6 5 7 8 6 6 7 4 4 2 2 3 5 4 3 4 3 5 6 10 14 16 17 16 16 16 17 16 13 15 16 16 17 18 17 18 19 19 20 24 28 30 32 35 38 41 43 43 42 41 42 42 42 43 44 43 43 42 41 41 41 41 40 39 38 37 37 36 37 37 37 37 37 36 36 36
5 6 7 10 12 14 13 11 10 9 8 5 6 8 4 5 5 4 2 3 4 6 5 4 6 4 3 5 5 7 11 13 13 12 14 16 16 16 15 16 18 18 18 18 19 19 19 19 19 23 29 32 36 38 41 43 44 43 42 42 42 42 42 43 43 43 43 43 42 41 41 41 40 40 39 38 37 36 37 37 36 37 37 37 37 37
5 5 6 10 14 12 10 10 10 9 10 8 6 7 5 4 5 4 4 5 6 6 4 4 6 5 5 5 5 8 12 13 14 14 13 15 16 16 17 19 19 18 16 17 17 17 17 18 18 22 28 33 37 40 42 43 41 41 41 42 43 44 45 45 44 43 42 42 42 41 42 42 40 40 39 38 36 36 37 38 37 37 38 38 38 38
5 4 5 7 11 10 7 8 9 9 9 8 5 5 4 5 6 5 5 5 5 5 4 4 5 5 6 6 6 11 12 12 14 14 14 16 19 19 18 18 18 16 15 15 16 16 17 18 19 24 30 33 36 38 38 39 40 40 41 41 42 43 43 44 43 43 42 41 41 40 41 41 41 40 39 38 37 37 38 39 38 38 38 38 39 39
4 5 5 6 6 8 6 6 10 10 9 8 7 7 5 3 3 5 4 3 5 5 3 4 5 6 6 5 8 11 12 11 14 15 16 18 20 20 19 18 17 16 16 16 16 17 18 18 19 25 31 33 34 35 35 37 39 40 40 40 41 41 41 42 43 42 42 41 41 40 40 40 40 40 38 38 38 38 38 39 39 39 39 39 40 41
6 5 6 6 6 6 6 6 11 14 12 10 8 8 8 4 4 5 5 3 2 5 5 5 5 7 5 4 8 10 11 9 12 15 16 17 20 20 19 20 19 17 17 17 17 18 17 16 17 21 27 28 29 31 34 36 37 37 38 40 41 41 41 43 43 43 42 41 40 40 40 40 40 40 39 38 38 38 39 39 40 40 40 40 41 41
9 5 7 8 8 8 8 7 10 16 17 13 11 9 7 5 5 6 6 4 2 4 4 4 4 8 6 5 7 9 9 7 10 14 15 16 19 20 19 19 18 18 18 18 19 18 16 16 17 19 22 25 27 30 33 34 35 37 40 40 40 41 43 44 44 44 42 41 41 41 41 40 39 39 39 39 39 39 40 40 40 40 41 42 42 42
9 5 6 7 7 8 10 8 6 10 15 13 11 10 9 8 6 6 6 4 3 5 4 4 6 8 6 6 8 7 6 7 8 11 13 12 13 15 17 18 18 18 19 19 19 17 16 15 14 15 17 19 23 27 31 33 35 36 37 38 39 41 43 43 43 43 42 41 41 41 41 40 39 39 40 40 40 40 41 40 40 40 42 42 42 42
8 6 6 6 6 7 9 8 5 6 9 9 9 12 14 14 10 6 4 4 3 5 6 6 7 7 5 5 9 11 9 6 6 7 10 10 9 11 15 16 17 17 18 19 19 17 14 12 11 13 13 15 21 26 30 33 35 35 36 38 39 39 40 41 41 41 42 42 41 41 41 41 40 40 41 41 41 41 41 40 40 41 42 42 42 42
8 8 8 8 10 10 9 8 7 6 7 7 8 13 17 17 15 9 4 5 6 5 6 6 6 6 7 5 10 15 16 12 7 6 8 9 10 12 14 15 15 16 17 19 17 14 13 12 13 15 14 15 20 26 29 32 34 35 36 38 38 37 37 39 40 40 41 41 40 41 42 41 41 41 42 43 42 41 41 41 40 41 42 42 42 41
5 6 10 15 13 12 11 9 6 6 8 8 9 13 16 18 18 12 6 6 6 4 5 6 5 4 7 7 9 13 15 13 9 6 7 8 10 11 11 12 14 15 16 17 15 12 12 12 14 16 15 16 21 26 29 32 34 35 35 36 37 37 37 38 39 39 40 40 40 40 42 43 43 43 43 44 43 42 41 41 41 42 42 42 41 40
3 5 10 17 18 15 15 14 10 7 10 13 12 12 16 18 18 14 10 8 8 6 8 8 6 6 8 8 8 11 13 11 7 6 7 8 10 11 10 10 11 12 12 12 12 12 13 13 15 16 16 17 21 26 29 30 33 34 34 35 36 36 37 38 38 38 39 40 40 41 42 44 44 44 44 43 43 41 41 41 42 42 41 41 40 40
1 5 8 14 19 19 17 18 17 11 8 11 14 14 16 19 20 19 15 10 10 8 9 8 9 10 8 7 8 9 10 8 6 7 7 7 8 11 14 15 16 15 13 13 14 14 15 15 15 16 16 16 17 21 24 27 30 32 33 35 37 37 39 39 39 39 39 39 40 42 43 43 43 43 43 42 42 42 42 42 42 41 40 40 40 41
2 4 7 9 16 20 18 18 20 16 10 10 12 14 15 18 20 20 16 13 13 11 8 9 12 11 8 8 9 9 9 7 4 3 4 5 4 6 11 14 15 15 14 15 16 16 16 17 16 16 15 14 14 17 21 24 28 31 33 34 37 38 40 41 40 39 39 40 42 42 42 42 42 42 42 42 42 42 42 42 41 41 40 40 40 40
4 4 8 11 8 17 20 19 19 18 14 10 10 12 14 16 18 18 16 13 11 9 7 9 11 10 7 7 9 9 8 6 4 3 5 6 7 7 8 10 12 13 14 15 16 16 16 15 14 13 14 14 15 19 22 25 27 30 32 34 36 39 40 41 40 40 41 42 41 40 41 41 41 41 41 42 42 42 43 42 41 40 40 39 39 39
4 5 8 9 5 9 16 20 20 19 14 11 11 11 11 12 14 14 14 11 9 9 8 7 8 7 7 8 9 10 8 7 7 6 6 6 7 9 9 10 11 12 13 13 13 12 12 13 13 14 14 14 16 20 24 26 27 29 31 34 38 40 40 41 41 40 41 41 40 39 41 41 41 41 41 41 42 42 42 41 40 39 38 38 38 38
4 5 6 5 5 6 11 19 19 15 12 12 12 12 10 9 9 8 9 11 12 11 9 8 9 8 8 8 8 10 8 7 8 7 6 6 7 9 10 10 10 10 10 10 10 10 11 11 11 13 14 14 17 24 30 31 30 31 35 39 41 40 39 40 41 41 41 40 40 40 42 41 40 40 41 41 42 41 40 39 39 39 39 39 38 37
6 6 5 2 2 7 9 12 13 11 12 10 6 10 13 11 10 7 6 8 10 8 6 5 7 7 7 8 10 10 8 6 6 5 0 1 3 6 9 11 11 11 11 10 10 10 10 10 11 13 17 22 27 32 35 35 35 37 40 41 40 39 39 40 40 40 40 40 41 42 42 41 40 40 40 40 40 39 38 39 39 39 39 38 37 36
9 7 6 3 3 7 7 7 11 12 12 6 3 5 12 13 13 10 3 1 3 6 5 2 2 2 4 6 8 9 7 6 4 4 7 7 3 2 5 9 11 12 13 13 14 15 15 15 15 14 17 24 30 32 31 33 37 38 38 37 37 39 40 41 40 39 39 39 40 41 41 40 40 40 39 39 38 38 38 38 38 38 38 36 36 37
11 8 6 4 3 4 5 5 9 8 5 2 6 3 6 9 10 9 4 5 5 4 4 5 5 5 3 3 3 5 7 10 11 10 9 8 7 4 2 6 7 9 10 11 13 15 15 16 17 18 21 26 28 28 29 33 36 35 33 34 37 38 40 40 38 38 38 38 40 41 42 42 41 39 38 38 37 37 37 37 37 37 37 35 35 36
12 8 5 4 3 3 4 5 4 2 1 1 2 3 3 7 9 9 6 3 6 4 2 8 8 6 5 3 2 2 3 8 10 8 9 10 9 7 5 3 3 4 5 6 8 11 14 16 18 21 24 27 28 30 32 36 37 34 32 33 34 35 37 36 36 37 38 38 40 42 42 42 40 39 38 37 37 37 37 37 37 37 36 35 34 35
10 9 7 4 3 3 3 4 3 4 5 5 5 5 1 6 10 11 8 0 6 6 2 5 7 4 3 4 2 0 3 7 6 4 6 8 9 9 9 8 7 6 6 6 7 9 12 17 21 22 22 21 22 28 32 34 33 30 28 30 32 33 33 33 35 37 38 39 41 42 42 42 40 38 37 37 38 38 38 37 37 36 36 36 36 36
7 4 7 5 3 3 3 4 4 4 5 6 4 3 3 9 11 10 8 0 5 6 4 3 7 6 4 5 5 5 6 5 1 4 4 5 6 7 8 9 9 9 8 7 7 8 12 17 20 22 22 18 19 24 26 27 29 28 26 28 31 31 30 32 36 38 40 42 42 41 41 40 39 38 38 38 39 39 38 38 36 36 36 36 36 36
7 2 1 1 3 4 3 4 3 1 2 3 2 2 3 7 9 9 4 4 5 4 2 4 8 6 4 5 6 7 7 4 4 3 4 3 4 6 7 8 8 9 9 10 10 10 11 15 16 15 15 17 24 29 27 25 25 24 25 28 29 28 29 34 39 42 43 43 40 39 39 39 39 39 39 39 40 39 38 37 35 34 35 35 35 34
3 2 2 3 3 5 3 4 3 1 2 8 13 12 7 1 6 4 5 6 4 1 1 6 8 6 6 7 6 5 5 4 2 1 4 4 5 7 7 7 6 7 9 10 13 15 9 6 9 12 16 20 23 23 24 28 27 25 27 27 24 27 34 40 43 42 41 39 37 38 40 40 41 41 40 40 39 37 36 36 35 36 36 34 33 33
2 2 3 3 4 5 4 4 1 3 3 14 20 16 7 1 3 6 4 3 5 5 6 8 8 6 7 9 7 5 4 4 4 4 5 7 8 8 8 9 9 9 10 11 14 16 12 8 4 4 10 15 16 13 12 16 20 23 27 25 24 32 39 40 39 37 35 35 36 38 40 41 42 42 40 38 38 36 35 35 36 36 35 34 33 32
2 1 3 3 3 3 4 4 2 2 5 18 20 12 4 1 4 6 6 6 6 7 8 8 7 6 7 8 7 6 6 6 7 7 7 8 8 8 8 9 9 8 9 10 12 13 10 7 7 8 8 4 8 11 11 11 13 17 18 19 28 41 44 39 37 35 34 34 36 37 39 41 42 41 39 38 39 38 35 34 34 35 35 34 33 30
1 0 2 2 1 1 2 3 2 3 9 14 11 6 5 3 2 7 8 7 6 6 6 7 7 7 7 8 8 8 9 9 9 9 9 9 9 9 8 8 9 9 9 8 11 13 11 6 5 7 8 7 1 7 13 17 17 13 12 18 26 31 32 34 36 35 33 34 34 36 37 38 39 39 39 39 39 37 34 33 33 33 33 33 31 28
1 0 2 2 2 1 3 5 5 6 9 10 7 6 9 9 6 8 10 8 6 4 5 6 7 6 7 9 9 9 9 8 8 8 9 9 9 9 9 9 9 9 9 10 12 15 13 9 8 8 6 6 4 2 11 18 21 17 18 24 26 22 23 28 31 32 32 33 33 34 34 35 36 37 38 40 40 38 36 34 33 31 30 30 29 27
1 1 2 2 1 2 4 5 5 6 9 11 10 11 13 11 7 7 11 9 7 6 6 7 8 7 7 8 9 8 6 6 6 7 7 7 9 9 8 8 9 9 9 9 11 14 14 11 10 10 9 12 14 11 4 9 14 13 13 18 20 20 21 23 23 26 29 30 32 34 35 34 34 35 37 39 40 39 38 37 35 32 30 29 28 26
1 1 1 1 1 1 2 4 7 7 7 9 11 14 16 13 9 6 9 8 7 8 9 8 9 9 8 8 10 9 7 6 6 6 6 6 7 8 8 9 9 9 9 9 10 12 11 10 10 10 9 12 17 17 13 6 2 3 4 4 6 11 13 11 12 19 25 28 31 34 37 36 35 35 36 37 37 37 36 36 36 34 31 29 28 26
0 2 1 1 2 1 3 5 8 6 6 9 11 12 13 11 9 6 8 9 9 9 9 8 8 9 9 8 9 10 9 8 7 7 7 7 7 7 8 8 8 8 9 11 12 12 11 8 8 10 10 11 14 15 12 10 7 1 6 9 12 16 17 12 3 6 16 26 31 32 35 37 38 36 35 35 35 35 34 34 35 34 32 32 31 29
1 2 1 1 1 1 3 4 5 4 7 12 13 13 13 11 9 6 5 10 11 10 11 11 9 9 10 9 9 10 11 9 7 8 9 8 8 9 8 7 8 7 8 11 12 10 10 9 8 9 10 10 13 14 11 9 7 3 3 9 16 21 21 18 13 10 5 6 17 23 27 32 36 36 35 35 36 34 32 32 34 33 32 31 30 29
1 1 1 2 2 1 2 3 3 1 3 7 10 12 13 13 11 9 4 7 10 9 10 12 11 10 10 9 8 10 11 8 7 9 10 9 8 9 9 9 8 7 8 11 11 8 7 8 8 9 9 11 13 13 11 7 3 2 4 10 19 24 25 23 20 17 15 11 8 15 20 21 25 29 32 35 37 35 29 27 29 31 31 29 27 27
1 0 1 1 2 2 2 2 1 3 3 3 7 10 11 12 11 9 6 5 8 7 8 11 12 11 10 8 8 9 10 8 7 8 9 8 8 8 9 10 10 9 10 12 10 8 8 7 7 6 6 10 14 14 12 9 5 6 9 14 21 28 31 30 27 24 20 13 11 15 19 18 19 23 26 30 35 36 32 27 24 23 24 25 24 22
Wind_Direction
172 209 228 220 219 210 224 218 206 224 232 243 251 245 254 260 263 256 256 242 181 159 173 173 165 161 164 169 170 172 172 170 171 170 172 173 174 177 178 182 186 191 196 191 191 193 192 193 189 186 186 185 185 187 188 188 190 191 191 192 194 196 196 195 196 198 201 200 199 201 203 204 208 210 209 209 213 217 218 219 223 222 220 221 221 222
173 211 228 217 213 210 220 224 210 222 236 247 249 252 260 253 259 263 269 259 201 183 194 177 163 166 172 172 169 170 172 174 175 174 175 176 177 179 180 184 187 191 191 184 189 192 191 192 190 187 186 185 184 186 187 188 189 190 191 192 193 195 196 196 196 197 199 200 199 199 201 203 206 207 208 209 211 215 219 222 223 221 221 222 221 221
203 219 222 208 208 214 223 228 219 222 230 242 245 250 260 248 263 273 269 269 228 198 200 183 171 174 179 176 170 170 174 178 177 177 177 177 179 181 182 185 187 187 185 184 188 190 190 191 189 187 186 187 188 188 188 189 189 190 191 193 193 195 195 196 197 197 198 199 199 199 200 202 204 207 209 211 211 213 218 222 222 221 221 222 221 220
209 217 211 199 197 211 225 230 228 232 227 234 239 239 253 246 248 267 259 263 233 208 191 181 174 177 178 175 176 176 176 178 180 180 178 177 180 184 185 185 184 184 185 188 190 188 188 189 188 187 188 189 189 189 189 190 190 191 193 193 194 195 196 196 197 198 198 199 199 200 201 202 204 206 207 210 212 213 216 220 224 224 222 220 220 220
216 199 197 199 200 205 218 227 223 230 230 232 233 230 248 247 232 241 259 285 259 240 179 159 148 200 183 175 185 185 177 179 182 181 180 183 184 183 185 186 185 184 185 187 190 189 187 188 189 188 188 189 188 189 191 191 192 193 194 194 194 195 195 196 197 197 197 196 197 198 199 202 203 204 205 207 211 213 215 219 223 223 220 217 218 221
225 204 190 202 207 205 211 223 220 218 224 235 235 231 241 249 247 246 261 298 275 262 195 155 154 259 219 184 185 185 180 183 183 181 183 186 187 185 185 188 189 187 187 187 188 189 188 188 190 189 188 188 189 192 193 194 195 195 194 194 194 194 195 196 197 196 195 194 194 194 194 197 200 203 205 207 209 210 214 218 220 216 214 215 218 219
220 208 200 205 206 207 211 220 220 212 212 234 228 227 240 249 254 254 258 267 204 241 226 180 179 224 239 207 191 184 183 185 184 186 186 185 187 188 187 188 189 190 190 190 190 190 189 187 188 189 189 189 191 194 194 195 196 195 195 194 194 194 194 195 195 195 194 194 195 196 197 198 200 204 208 210 210 210 212 215 216 212 211 215 218 218
192 200 210 212 207 210 212 216 218 204 208 233 210 206 237 246 249 252 253 248 219 251 264 209 193 172 196 214 199 184 183 184 187 191 190 187 188 190 190 188 188 190 190 190 192 192 190 188 188 190 192 193 194 194 193 193 194 195 195 194 194 194 194 194 194 194 195 195 196 197 199 201 203 207 209 211 211 210 211 212 213 211 212 215 217 218
178 197 207 211 214 216 212 214 214 201 214 237 205 201 229 240 248 249 248 249 220 219 264 235 205 193 216 212 197 187 184 186 193 195 193 189 190 192 192 190 188 190 190 188 190 192 193 191 191 192 194 195 195 193 192 193 194 195 194 193 193 192 193 193 194 194 196 196 197 197 198 201 205 208 209 210 209 209 209 210 211 211 213 214 215 217
187 200 200 206 218 220 211 217 213 205 218 227 202 213 234 238 248 250 243 246 224 204 228 221 197 220 272 219 186 190 191 194 199 200 197 191 190 193 193 192 190 189 190 190 191 192 193 193 193 194 194 195 195 193 194 194 193 193 192 191 191 191 192 193 194 195 196 197 197 197 198 200 204 206 208 208 207 207 207 207 207 209 212 212 212 214
222 220 201 202 215 214 204 212 215 211 216 216 196 214 244 247 252 268 251 223 225 234 228 212 196 200 258 239 187 190 194 196 198 201 203 196 190 192 194 193 191 189 189 191 193 194 195 195 195 194 193 194 194 194 193 193 192 192 191 191 191 192 192 193 194 195 196 197 198 198 199 201 203 204 205 204 203 203 203 203 204 207 210 210 209 211
234 240 231 210 208 206 202 210 215 212 213 215 196 196 231 259 271 280 275 186 208 241 238 217 202 197 225 240 201 203 202 195 194 197 201 201 196 193 194 194 192 190 189 189 192 194 195 197 195 193 193 194 193 192 192 191 191 191 191 192 192 193 193 193 194 196 197 198 199 200 201 202 204 204 203 201 200 200 200 201 203 205 206 206 207 208
233 236 239 242 222 204 200 207 217 213 209 209 196 178 194 225 248 243 246 221 214 241 239 208 200 204 219 219 200 205 208 202 198 198 199 201 199 193 192 194 193 190 188 188 191 192 192 194 194 193 194 193 192 191 191 191 190 190 191 191 192 193 194 193 194 196 197 199 200 202 202 203 205 205 204 202 201 199 199 201 203 202 201 202 203 203
250 255 239 238 239 214 202 200 207 211 204 203 194 176 185 195 210 224 237 248 234 253 243 195 191 212 227 223 203 199 205 205 201 202 203 202 199 194 193 192 191 190 189 189 190 190 191 192 194 195 194 192 192 192 191 190 190 190 191 191 192 194 194 194 194 195 197 200 202 203 204 205 205 206 206 205 203 201 201 203 204 203 202 201 202 202
225 251 227 221 223 205 209 205 192 184 190 205 189 163 189 194 190 205 210 217 227 257 262 203 189 196 197 217 204 196 202 203 201 206 207 203 198 194 193 190 188 190 191 191 191 191 192 193 194 196 194 193 194 192 190 190 190 190 191 192 193 193 194 195 195 196 198 200 203 204 205 206 206 207 208 207 206 204 203 204 204 204 204 204 205 205
216 238 232 226 223 205 214 205 175 168 187 208 178 157 201 192 168 201 204 189 185 236 257 224 205 207 206 226 207 196 200 199 202 207 204 202 198 190 189 190 189 191 192 191 192 192 193 194 195 195 195 194 193 192 191 191 191 191 192 193 193 194 194 195 196 197 198 200 203 205 206 206 207 208 209 209 208 207 206 205 204 204 205 207 209 207
201 240 238 228 237 225 220 206 180 179 184 202 193 189 194 161 160 212 247 234 180 225 246 227 247 282 274 268 234 198 200 203 204 202 196 196 195 188 188 193 194 193 192 192 192 193 194 195 196 196 195 193 192 192 193 193 193 193 192 192 193 194 194 195 197 198 199 200 202 204 206 207 207 208 209 210 210 209 208 208 207 207 208 210 210 208
176 247 244 216 234 234 222 220 216 197 169 169 203 202 167 126 161 181 199 243 228 234 261 235 233 256 239 255 257 195 198 209 207 196 192 193 191 191 194 198 199 194 192 193 192 193 195 195 196 196 195 194 192 193 194 194 194 193 193 192 192 193 194 195 197 198 199 200 201 204 206 207 208 208 210 210 210 210 209 209 208 208 209 210 210 208
181 255 268 217 222 231 220 219 232 226 194 181 188 188 166 168 190 180 178 205 212 222 264 261 240 227 207 228 234 205 204 206 203 195 190 188 188 194 200 201 201 195 191 193 193 195 197 196 196 195 195 195 194 195 195 194 193 192 193 193 193 194 195 196 197 198 200 200 201 203 206 208 208 209 210 210 210 209 209 209 207 207 209 209 208 207
187 219 268 239 220 218 213 204 216 231 219 200 183 184 183 181 188 193 190 180 184 207 230 243 246 238 222 209 200 217 218 200 196 196 191 191 191 196 201 202 199 193 189 192 194 197 198 198 198 195 195 195 194 195 194 191 191 192 193 193 194 195 195 195 196 197 199 200 201 203 205 207 208 209 210 210 210 209 209 209 207 207 208 207 207 206
193 196 235 268 246 215 209 204 201 206 211 206 199 200 200 181 174 196 208 174 157 177 191 204 234 253 244 202 190 221 231 203 194 196 193 195 197 198 200 199 197 194 192 191 193 197 199 199 197 196 196 194 192 192 190 190 191 192 192 193 193 194 194 195 196 197 198 200 201 202 204 206 208 209 210 210 210 210 210 210 209 208 207 207 207 207
194 203 220 245 254 231 225 216 198 194 200 202 205 206 195 172 138 177 238 280 154 175 180 180 232 260 250 198 187 216 231 211 195 197 199 197 197 199 201 199 197 194 193 193 194 197 199 196 194 195 194 191 188 188 188 190 191 191 192 193 193 193 193 195 195 196 198 198 200 202 203 205 207 208 209 210 211 212 211 210 210 209 207 208 209 208
188 192 211 225 241 240 234 231 209 201 199 199 207 205 185 172 151 168 220 258 221 222 202 169 233 262 249 209 200 215 222 214 205 203 204 200 197 199 200 198 197 194 194 195 196 199 198 194 193 191 188 186 185 186 187 188 190 192 193 193 192 193 195 195 195 196 196 197 199 201 202 204 205 207 209 210 211 212 212 211 210 209 208 209 210 210
188 194 206 218 246 255 249 257 260 220 203 201 209 199 188 195 177 169 189 177 194 228 197 188 237 263 263 227 227 240 216 197 210 210 208 208 203 200 197 195 195 195 195 196 198 202 199 192 188 184 183 184 184 184 185 187 191 193 194 193 193 195 195 194 195 195 195 196 198 200 201 202 204 205 207 209 211 212 212 212 210 209 209 210 210 211
204 195 178 193 222 242 251 255 264 240 213 210 206 195 200 198 177 167 175 160 218 222 177 188 233 255 272 229 231 257 253 222 215 205 200 203 204 202 197 195 195 193 195 198 199 200 194 181 177 180 183 185 184 183 184 188 191 192 193 194 195 196 195 194 194 194 194 195 197 198 200 201 202 204 206 209 211 212 212 211 210 210 210 210 210 211
230 199 173 190 207 210 224 232 222 205 210 222 205 194 200 196 185 180 163 179 227 219 170 188 226 260 287 247 224 246 257 256 246 213 198 198 202 206 199 193 192 192 196 199 198 194 185 177 179 183 184 186 185 184 185 188 190 192 194 195 196 196 195 194 195 194 194 195 195 197 199 200 201 203 206 209 211 212 212 211 211 211 210 210 211 211
259 223 202 200 205 206 208 221 212 167 183 215 209 195 198 198 194 185 170 193 198 174 201 213 196 235 274 256 225 234 247 254 255 239 220 205 203 207 203 198 195 195 197 195 191 187 181 181 185 183 183 186 186 186 187 189 191 192 193 194 194 194 194 195 196 194 194 195 196 197 199 199 201 203 206 208 210 211 211 211 212 212 212 211 211 211
302 284 243 212 207 208 203 212 214 176 183 205 205 196 198 199 194 189 199 198 151 156 228 222 181 208 249 252 236 234 241 250 266 258 226 202 194 189 191 202 205 204 201 191 186 184 182 184 187 185 186 187 187 188 189 190 192 192 192 192 192 192 194 195 196 195 195 195 197 199 200 200 201 203 205 208 209 210 211 212 213 213 213 212 212 212
271 281 274 232 218 210 203 210 214 201 187 199 202 198 196 198 198 199 205 183 149 183 220 192 183 209 232 244 240 237 235 232 246 246 217 201 203 186 182 195 201 200 194 189 189 188 187 189 189 188 188 185 185 186 187 189 191 191 192 192 192 192 194 195 195 196 196 196 199 201 201 201 202 203 205 207 208 209 211 213 214 214 214 213 213 214
296 265 301 276 233 214 206 209 214 213 200 194 206 203 195 198 201 204 207 188 179 201 202 178 199 217 221 225 232 240 232 211 215 230 172 162 179 180 186 196 198 195 192 193 195 192 191 192 190 188 185 182 183 184 185 189 190 190 192 192 192 193 194 194 195 196 196 199 202 202 201 201 202 203 204 205 207 209 210 213 214 214 214 214 214 215
336 293 317 319 258 217 210 206 211 216 205 193 208 209 201 201 201 204 207 196 191 207 199 187 207 229 242 231 232 243 235 203 187 175 167 173 159 157 186 196 192 195 198 200 200 196 194 191 186 185 182 181 185 185 186 190 190 191 193 192 193 195 195 194 195 197 198 201 203 201 201 202 202 202 204 205 207 208 210 212 213 213 214 214 215 215
316 296 318 336 310 231 213 205 210 217 210 207 217 211 203 203 202 206 205 189 182 193 195 198 210 233 249 233 231 243 232 211 213 191 179 206 180 156 178 193 190 194 199 203 202 196 193 189 183 183 184 186 188 187 189 190 189 191 193 194 196 197 195 194 196 198 200 202 202 201 201 203 202 202 204 205 207 208 209 211 212 212 213 214 214 214
285 295 317 341 333 279 224 203 204 211 215 228 226 201 189 197 202 212 213 201 197 191 187 205 216 218 220 204 209 231 223 206 218 199 172 208 202 168 168 181 186 189 190 196 198 194 192 189 186 185 186 187 189 192 194 192 189 192 196 197 198 196 194 195 198 199 201 201 200 201 202 203 202 202 204 205 206 208 209 210 210 211 212 213 214 214
262 273 286 295 311 286 248 192 179 201 218 231 221 173 176 191 190 190 211 217 216 209 196 218 231 224 220 200 190 210 219 201 221 243 335 5 231 196 178 176 180 183 182 182 188 193 195 195 195 193 191 192 194 197 197 194 194 198 199 198 196 194 194 196 199 200 201 200 200 201 202 202 202 203 204 205 205 206 207 209 210 211 211 212 213 213
264 268 268 232 203 273 270 166 164 205 220 233 279 193 181 182 174 167 166 325 259 235 223 238 267 233 239 225 187 176 170 138 103 20 26 40 26 247 209 196 185 180 182 185 189 194 196 198 200 200 199 199 199 199 198 196 198 201 200 198 195 194 195 197 198 200 201 201 200 201 201 201 202 203 203 203 203 205 206 208 209 210 211 211 211 212
254 256 255 241 216 269 276 192 186 217 229 289 321 289 169 159 155 138 77 356 316 265 201 160 152 152 160 237 219 165 139 114 83 42 20 20 23 26 275 238 211 193 193 193 195 198 200 202 201 200 203 203 201 199 199 200 202 201 199 198 196 196 197 197 198 200 201 201 201 201 201 201 201 201 201 201 201 203 205 207 208 209 209 209 210 212
244 238 241 251 235 228 250 240 212 189 175 180 304 280 174 162 161 139 112 311 306 324 156 149 143 146 154 167 243 248 135 92 66 30 2 355 357 10 9 325 281 251 234 216 205 205 209 213 210 208 207 203 200 200 201 203 202 199 196 197 198 199 199 197 198 200 201 202 202 201 202 201 200 199 198 197 198 201 203 205 206 208 207 206 208 209
250 219 210 230 240 214 221 237 199 161 185 209 239 263 235 126 138 127 109 318 305 336 351 137 119 109 134 121 107 195 78 63 43 352 350 355 354 6 16 7 350 328 299 272 246 225 214 212 212 215 216 211 207 206 205 203 201 197 196 196 197 200 200 199 201 201 201 203 203 201 201 200 199 197 195 195 197 199 201 203 204 205 204 204 205 207
309 217 197 211 252 254 220 220 207 177 205 225 224 221 152 129 122 100 84 15 282 321 347 96 96 86 95 95 90 96 89 84 234 282 338 3 3 15 22 11 359 354 347 326 296 265 236 221 215 215 214 211 214 215 210 204 198 195 196 198 198 199 201 203 204 203 203 204 204 201 200 199 198 197 195 195 197 198 199 201 202 202 201 202 204 205
347 345 152 162 265 273 247 228 224 168 231 269 358 19 192 148 112 91 106 214 254 296 341 93 91 83 86 85 77 78 88 132 195 262 336 1 17 25 31 21 3 356 3 4 352 326 271 239 228 222 215 211 215 216 209 199 196 197 201 202 199 198 202 206 207 206 205 205 203 199 198 197 197 196 195 196 197 197 197 198 197 196 196 197 199 200
341 341 34 49 338 316 288 238 234 145 33 357 350 331 306 96 102 125 196 208 199 210 41 76 82 74 67 69 68 72 82 103 123 16 352 15 34 30 25 25 17 9 9 9 9 7 346 269 235 228 229 229 230 225 209 197 195 198 203 204 202 203 207 209 209 208 207 204 200 198 197 196 195 196 196 195 195 193 193 193 192 190 190 190 191 191
336 344 33 40 357 329 292 265 253 149 57 0 341 322 315 70 177 198 192 152 126 102 63 60 66 63 65 70 74 88 90 70 58 45 24 25 31 25 15 15 20 17 9 6 11 17 16 5 350 284 250 243 245 252 237 212 207 208 206 202 201 207 211 212 211 210 207 203 199 197 196 194 193 193 192 192 189 187 187 187 187 185 184 183 183 182
322 346 47 40 1 328 302 315 17 155 337 345 339 328 357 69 198 171 119 96 90 81 71 65 53 46 63 71 64 61 57 41 33 32 29 27 26 23 18 16 16 10 4 5 7 8 12 17 16 12 1 315 243 232 226 222 229 234 228 217 212 211 211 210 209 208 205 201 199 196 194 193 190 188 186 185 183 181 180 179 178 178 178 178 175 172
324 354 95 95 100 25 315 327 2 281 308 328 331 324 345 355 145 124 107 97 81 72 77 74 54 43 60 69 59 45 38 30 23 20 21 22 18 15 13 13 14 11 3 360 355 353 357 8 10 12 19 18 334 209 199 197 203 218 237 242 237 229 218 208 204 202 200 197 195 194 192 189 185 182 179 178 176 174 171 170 170 170 171 171 168 164
360 233 145 149 151 175 256 270 274 289 312 326 329 345 2 15 56 92 99 98 87 75 83 84 71 54 57 66 65 53 40 31 23 19 22 21 16 13 13 12 15 13 4 359 355 351 351 354 355 2 15 16 2 222 198 195 193 195 211 226 236 243 232 215 202 194 192 191 189 188 185 181 179 176 173 171 170 167 164 163 162 161 161 162 161 157
54 68 139 150 167 248 251 257 272 304 333 342 348 8 19 16 24 75 91 92 90 88 88 90 90 79 69 76 77 67 51 40 34 28 25 24 21 17 13 13 16 14 9 5 359 357 1 6 5 7 12 9 3 355 311 216 202 202 214 221 223 225 222 215 203 191 186 183 182 179 175 172 170 168 166 166 165 163 162 161 158 155 154 155 154 155
67 38 104 123 67 339 283 296 305 316 344 357 1 14 19 6 355 41 81 88 91 93 91 93 99 96 89 86 87 84 71 54 49 42 31 28 28 20 13 12 10 5 6 8 6 9 18 26 27 28 25 15 9 5 356 338 242 186 173 167 170 176 176 183 204 201 187 177 174 172 168 165 161 158 158 157 156 156 156 157 155 152 150 152 152 154
360 2 360 105 95 164 250 286 297 307 355 13 13 18 16 360 347 19 73 87 87 86 88 88 91 94 90 83 85 87 76 57 52 53 44 35 32 24 17 14 7 360 1 4 8 21 33 37 40 46 42 27 22 23 17 6 3 50 145 128 121 126 121 99 48 237 198 181 174 168 164 159 154 151 150 148 148 148 149 152 154 153 154 160 162 161
296 334 272 141 88 247 251 288 301 317 359 5 8 13 7 352 341 351 69 92 91 88 88 83 76 79 83 81 80 82 75 60 51 54 52 44 34 26 19 14 10 5 360 356 0 23 44 48 45 48 48 39 38 46 47 26 3 359 135 142 141 135 122 104 74 31 360 185 165 153 151 151 147 144 142 138 138 139 142 149 154 154 157 165 171 176
197 214 213 131 93 273 278 318 327 32 28 359 1 8 2 354 344 326 343 83 91 94 94 89 81 72 71 70 71 77 76 65 53 56 57 50 38 31 24 20 17 11 5 0 359 13 46 67 71 61 52 49 54 63 68 62 59 115 117 135 144 139 127 120 111 83 47 29 71 110 120 127 129 130 132 131 131 129 129 137 149 154 158 165 174 183
180 165 291 141 151 219 257 293 302 116 103 30 15 15 5 359 350 323 319 47 80 92 95 93 88 77 67 59 55 67 75 69 56 59 60 49 39 38 35 32 31 24 13 10 8 5 9 31 58 67 65 66 65 61 52 46 69 123 123 127 140 141 134 128 120 109 98 83 78 96 106 111 119 127 131 130 129 127 125 123 130 144 157 165 171 177
Height
732 748 752 751 752 750 746 744 746 747 746 749 752 754 754 755 751 738 730 719 712 731 739 733 736 740 741 741 740 740 741 745 748 749 751 753 755 757 758 760 760 761 759 758 762 765 767 769 771 774 777 779 782 784 786 788 790 792 795 797 799 801 804 806 807 810 811 813 814 816 817 818 819 821 822 823 824 825 826 827 828 829 830 831 832 833
734 750 750 743 743 741 740 740 741 744 745 747 751 754 753 753 747 733 728 721 711 728 739 731 735 740 736 735 734 735 741 744 744 746 749 749 751 752 753 755 755 755 755 757 760 762 764 766 768 771 773 776 778 780 782 783 786 789 791 794 796 798 800 802 804 806 808 809 811 812 814 815 817 819 820 821 822 823 824 826 827 827 828 830 831 832
745 748 741 735 736 736 738 737 740 743 745 748 750 754 756 748 742 734 726 721 715 726 739 734 736 740 733 729 730 731 735 737 735 736 740 743 747 749 749 750 751 753 755 756 756 758 760 762 765 768 769 771 773 775 778 780 783 786 788 790 792 795 797 799 801 803 805 807 809 811 812 814 816 817 818 820 821 822 823 824 825 826 827 828 829 830
752 743 732 730 731 735 740 738 741 745 745 748 748 755 755 741 745 747 732 723 717 719 729 731 735 739 735 732 730 727 727 729 729 729 730 734 738 741 741 743 746 750 753 753 752 753 756 758 761 763 764 766 769 772 774 777 779 781 783 785 788 790 793 795 798 800 803 806 808 810 812 813 815 816 817 819 820 821 821 822 823 824 825 826 827 828
743 733 724 727 730 734 741 740 741 748 750 747 743 749 748 736 742 744 732 725 720 717 720 730 746 748 741 741 737 727 725 727 727 728 731 731 730 732 734 737 739 741 744 747 748 749 750 753 755 757 760 763 765 767 769 771 773 775 777 780 783 786 789 792 795 798 801 804 807 809 811 813 814 815 816 817 817 818 819 819 820 822 823 825 826 826
734 723 719 728 731 731 738 741 738 744 752 750 740 736 735 732 735 734 731 733 738 739 725 730 763 766 744 742 739 730 730 731 728 729 732 731 729 731 733 735 735 735 736 738 740 742 744 746 750 753 757 759 761 762 764 766 769 771 774 777 780 783 786 789 792 795 798 801 803 805 807 809 810 811 812 811 813 814 815 816 818 820 822 823 824 824
724 718 718 727 730 731 736 738 733 734 750 753 735 725 725 727 731 732 733 741 752 751 727 723 755 767 752 745 737 730 732 732 729 729 729 729 729 729 730 731 732 733 734 734 735 736 738 741 745 749 751 754 755 757 760 763 766 769 772 774 777 779 782 785 788 792 795 797 799 801 803 805 806 807 807 808 810 811 813 814 816 818 820 821 822 822
714 718 721 723 727 732 735 736 727 726 743 744 723 719 725 724 729 730 732 743 746 740 731 724 735 755 758 746 731 727 733 735 732 730 727 725 726 725 724 725 727 728 729 731 733 733 735 737 739 742 745 747 749 753 757 760 763 765 768 771 773 776 779 782 785 788 791 793 795 798 800 802 803 803 804 806 808 810 811 813 815 816 818 819 820 821
707 718 720 720 727 731 729 726 718 719 732 728 714 716 720 720 724 723 729 739 736 740 750 737 732 754 758 738 727 728 734 738 734 728 724 722 720 719 719 719 720 721 721 724 727 728 729 731 733 735 738 741 745 749 753 755 758 761 764 768 771 774 776 779 782 785 787 789 792 794 797 798 800 801 802 804 806 808 810 811 813 814 816 817 818 819
704 706 706 713 723 724 720 714 709 716 722 714 709 714 715 717 720 720 728 734 735 748 757 739 732 754 757 738 735 737 737 737 730 721 717 714 714 713 713 714 714 715 717 718 720 721 722 724 727 729 732 736 740 743 746 750 754 758 761 765 768 770 773 776 779 781 784 787 789 791 793 795 797 799 801 803 804 806 807 809 811 812 813 815 816 817
699 694 695 702 708 707 707 707 704 708 709 705 710 718 721 721 720 724 726 729 744 757 749 731 724 741 755 743 734 732 725 720 718 717 713 709 710 709 707 708 709 710 712 714 715 716 717 719 721 725 729 732 735 738 742 745 749 753 757 760 763 766 769 772 775 778 781 783 786 787 789 791 793 795 798 800 801 803 805 806 808 809 811 812 814 815
701 701 698 693 691 693 700 704 701 699 699 705 714 722 732 734 730 734 732 733 757 760 738 724 717 729 748 740 724 716 704 699 704 708 708 706 705 705 703 703 703 704 706 708 712 713 715 717 720 723 726 728 732 735 738 741 745 748 752 755 759 762 765 768 771 774 777 780 782 784 786 788 790 792 794 795 797 799 801 803 805 806 808 810 812 813
708 705 698 691 686 685 698 709 706 701 700 708 717 725 742 752 750 754 750 746 756 748 725 717 720 728 733 718 707 707 699 694 694 694 695 696 696 697 697 697 697 698 701 703 706 709 712 715 717 719 722 725 728 730 733 737 740 744 747 750 754 757 760 763 766 770 773 776 778 781 783 785 787 789 791 792 794 796 798 800 802 803 805 807 809 810
719 707 696 697 691 680 690 707 714 712 707 711 718 727 742 755 764 769 761 752 751 737 716 711 720 731 725 705 694 695 691 686 684 683 683 683 685 688 689 690 692 694 696 698 701 704 707 709 711 712 715 719 722 724 728 732 735 739 742 745 749 752 755 759 762 765 769 772 775 777 780 782 784 786 788 789 791 793 795 797 798 800 801 803 805 807
730 723 701 696 691 680 683 692 698 701 704 706 704 714 729 734 747 758 754 752 749 735 719 715 724 730 721 700 681 678 678 676 677 676 674 675 676 680 683 686 690 692 692 694 696 698 700 701 703 706 709 713 716 719 724 727 731 734 737 741 744 747 751 755 758 761 764 768 771 774 777 779 781 783 784 786 788 790 792 794 796 797 798 800 802 804
723 720 691 681 678 674 680 679 678 690 704 701 693 707 719 711 718 734 735 733 733 733 725 717 717 710 695 681 668 667 671 671 673 671 672 677 677 678 685 687 688 688 688 689 691 693 694 695 697 700 703 707 711 715 719 722 726 729 732 736 739 743 747 751 754 757 760 764 768 771 774 776 778 780 782 784 786 788 790 791 793 794 796 798 800 802
716 710 682 677 677 670 674 673 669 683 698 698 697 705 701 690 700 723 730 720 722 739 732 713 711 701 689 683 672 669 673 671 672 673 674 677 676 679 685 684 683 683 683 684 685 687 689 690 692 694 697 702 706 710 713 715 719 722 727 732 736 741 744 747 751 754 757 760 764 767 770 772 774 776 778 780 783 785 787 789 791 792 794 796 797 799
702 705 682 677 684 670 661 667 666 665 675 691 701 695 685 688 695 709 729 729 730 746 734 712 713 710 706 700 681 675 681 677 674 676 675 675 676 680 681 679 677 676 676 678 679 680 682 684 686 689 692 696 699 702 705 709 714 719 723 727 732 736 740 743 747 750 753 756 760 763 766 769 771 773 775 777 780 783 785 787 788 790 791 793 795 796
688 704 690 672 679 671 657 670 680 667 660 673 682 676 683 705 711 710 724 733 738 747 735 716 712 709 707 700 682 677 681 677 674 674 674 675 676 677 675 673 671 671 673 675 676 677 678 680 681 683 687 690 694 697 700 705 711 716 720 723 727 730 733 738 742 746 750 752 755 759 762 765 768 770 772 775 778 780 782 783 785 786 788 790 792 794
679 701 700 672 666 669 665 675 689 683 668 665 669 672 678 692 703 705 710 716 728 739 736 726 718 708 695 683 676 673 669 670 672 671 671 671 669 668 667 666 667 669 671 672 672 674 674 675 676 677 681 685 689 693 698 703 708 711 715 719 723 727 730 734 738 742 746 749 752 755 759 762 764 767 770 772 775 777 778 780 782 783 785 787 789 790
677 692 700 681 666 671 675 673 677 680 677 676 680 684 683 683 689 696 697 697 708 724 732 731 726 707 679 665 665 663 658 661 664 664 664 662 659 659 658 659 662 663 665 666 667 668 668 669 671 673 677 680 685 691 695 700 704 707 712 715 718 723 727 730 734 737 741 745 748 752 754 758 761 764 767 770 772 774 775 777 779 780 782 784 785 787
677 685 693 688 678 678 675 659 656 662 665 671 678 680 682 685 690 704 709 697 693 705 714 720 724 702 667 654 656 653 651 654 655 656 656 653 652 653 651 651 654 656 659 660 660 661 663 665 667 670 673 678 683 687 691 695 699 704 707 710 714 718 721 725 728 732 736 740 744 747 750 754 757 761 764 767 769 770 772 774 775 777 779 780 781 783
660 673 685 688 679 673 663 649 646 649 649 657 665 667 674 681 686 702 714 703 693 696 696 703 714 692 656 644 648 648 648 649 649 650 650 647 645 645 645 645 647 649 651 652 653 655 656 659 661 664 670 675 679 682 687 691 695 699 702 705 710 713 715 719 723 727 732 736 739 743 746 750 753 757 760 763 765 766 768 770 772 773 775 776 778 780
653 667 680 685 676 664 655 648 645 643 646 656 659 657 665 674 677 683 690 690 693 696 695 706 713 688 653 640 642 644 645 646 646 645 646 645 642 641 642 643 644 646 646 647 648 649 651 654 658 663 667 671 674 679 683 687 690 694 698 702 705 707 710 715 719 723 727 731 734 738 742 745 748 752 755 758 760 762 764 767 768 770 771 772 775 776
656 663 674 688 692 685 675 670 663 655 653 656 656 653 655 661 669 675 677 683 692 693 693 706 710 686 656 642 639 639 641 643 643 641 642 644 643 642 641 640 641 643 644 645 646 648 651 655 659 663 665 667 670 674 678 682 686 690 694 698 700 704 708 712 715 719 722 726 730 733 736 740 743 746 749 752 755 757 760 763 765 765 767 769 771 773
654 653 661 679 694 698 692 683 673 663 657 653 651 651 651 654 664 674 680 690 697 693 689 696 696 679 658 647 644 640 639 640 640 639 640 640 640 640 639 639 640 641 642 644 645 648 651 654 656 658 660 663 666 669 673 677 681 684 688 692 697 702 706 709 712 715 718 722 725 728 731 734 737 740 743 746 749 753 756 759 761 761 763 764 767 769
656 647 645 654 664 670 670 664 653 649 654 657 653 652 652 651 655 666 679 688 690 691 690 685 680 676 665 654 651 645 638 638 639 639 640 638 636 637 638 637 637 637 638 639 642 647 650 652 654 654 657 659 661 665 668 671 675 679 683 688 692 698 702 706 709 712 715 717 720 723 725 728 731 734 737 741 744 748 752 754 756 757 758 761 763 766
669 663 648 641 644 644 644 645 641 640 647 651 651 652 651 649 652 662 674 676 676 687 693 680 671 675 668 656 653 648 640 639 639 637 636 635 632 632 635 637 638 638 638 639 642 645 648 650 651 652 653 655 658 661 664 668 672 675 679 683 688 693 697 702 706 708 710 713 715 717 719 722 725 728 732 736 740 744 747 750 752 753 755 758 760 762
681 676 654 641 640 636 634 635 634 637 641 641 643 648 648 648 651 657 664 664 665 676 681 671 666 669 662 651 648 644 639 638 636 630 628 629 629 627 629 634 636 637 639 640 641 642 644 646 646 648 649 651 654 658 662 666 669 672 676 680 684 688 692 696 701 703 706 708 709 711 714 718 721 724 727 732 735 739 742 745 747 750 752 754 756 758
681 674 657 648 642 633 632 632 629 633 639 638 639 641 641 644 646 648 653 655 655 659 662 660 661 661 654 645 639 633 631 630 629 627 626 627 630 630 630 631 633 634 636 636 637 637 638 640 641 643 646 649 652 655 659 662 665 668 672 675 679 682 686 690 695 698 701 702 703 706 710 714 717 720 723 726 729 733 737 740 743 746 748 750 752 754
685 678 664 657 649 636 629 629 628 630 636 639 639 636 636 640 643 644 646 649 654 658 656 656 661 659 649 640 633 628 627 626 625 626 626 624 626 630 632 632 632 632 633 633 633 634 634 636 638 641 644 647 648 651 655 658 661 665 668 671 674 677 680 685 689 692 694 696 698 703 707 709 712 715 718 721 724 728 731 735 738 741 744 746 749 751
688 683 671 669 668 648 627 628 631 627 632 641 640 636 636 638 641 641 640 642 649 654 655 658 663 658 644 635 633 628 627 628 626 624 624 622 621 625 630 632 630 630 631 632 632 633 634 635 637 640 642 643 644 647 650 653 657 661 664 667 669 671 676 680 683 686 688 690 695 699 702 705 707 710 713 716 720 723 727 731 735 737 740 743 745 748
688 687 680 681 684 661 631 626 629 632 646 650 634 628 633 633 634 636 635 634 634 638 648 655 652 641 630 628 631 628 627 630 628 623 623 623 622 623 625 627 628 628 628 630 632 633 634 634 634 636 637 639 641 643 645 648 652 655 656 659 662 667 672 675 677 680 683 686 690 693 696 700 703 705 708 711 715 719 723 727 730 733 736 738 741 744
685 686 684 683 687 671 639 623 630 649 661 644 616 610 620 624 629 634 634 631 627 627 634 636 631 627 624 625 627 626 626 629 627 622 622 624 625 624 623 622 623 624 624 626 629 631 632 632 631 631 631 633 634 636 638 642 645 647 649 653 658 663 667 669 672 675 677 681 684 687 691 695 698 700 703 707 711 716 719 722 725 728 732 735 738 740
683 683 682 677 678 670 643 630 647 661 648 622 605 603 606 610 617 626 631 631 627 625 625 625 627 627 626 624 621 621 625 628 627 625 625 626 625 625 624 621 619 619 620 621 622 624 626 627 628 628 627 627 629 631 635 639 640 642 646 650 655 658 660 663 666 669 672 676 679 682 686 689 692 695 699 703 708 712 715 718 721 725 728 731 734 736
674 676 675 669 668 664 650 643 651 647 623 607 607 605 604 609 614 624 639 640 631 627 626 625 626 624 623 625 621 621 625 626 626 629 627 624 623 623 623 622 619 616 616 615 616 618 618 619 620 622 622 623 625 629 633 635 637 640 644 648 651 653 655 658 661 664 668 671 674 677 680 683 686 690 694 699 703 707 710 714 717 721 724 727 730 732
661 665 667 665 661 660 658 649 639 633 624 616 614 608 604 608 611 620 640 644 632 628 627 625 626 624 623 624 623 622 621 622 631 638 632 625 624 621 620 620 619 617 615 613 613 614 614 615 616 617 619 620 623 626 628 630 633 637 641 645 648 650 652 654 656 659 662 665 668 671 674 678 681 685 690 695 699 702 705 709 713 717 720 723 726 728
648 649 656 662 657 652 657 653 642 644 641 626 616 607 597 600 602 606 629 644 634 627 628 626 627 628 625 622 622 620 620 629 644 649 639 633 629 624 622 621 618 617 615 613 612 611 611 613 615 617 620 621 623 624 625 627 631 635 638 641 643 647 650 651 651 653 656 659 662 665 669 673 677 681 686 690 693 697 701 704 709 712 715 718 721 723
645 640 643 654 656 651 655 654 647 647 639 619 609 602 596 599 598 602 635 656 640 627 630 629 628 630 628 624 621 618 624 641 654 650 641 638 634 629 629 627 623 621 619 615 614 612 610 610 612 614 617 619 620 622 624 627 630 633 635 637 639 643 646 646 646 647 650 653 656 661 665 670 674 678 681 685 688 692 696 700 704 707 711 714 716 719
655 650 646 653 659 656 655 649 638 633 627 614 608 604 597 593 593 616 657 666 639 627 631 628 628 630 629 626 623 624 633 644 649 646 640 637 635 632 631 630 628 626 622 619 617 614 611 611 612 613 615 615 615 616 621 626 629 631 632 633 635 638 640 641 641 641 644 647 652 658 662 666 670 673 676 680 684 688 692 696 700 704 707 710 713 716
668 664 659 663 668 666 660 649 635 630 629 625 622 614 600 593 604 634 657 646 630 631 631 626 629 632 629 628 629 633 640 641 641 641 639 635 634 633 631 631 630 628 626 624 620 616 614 614 614 614 614 614 614 616 618 621 624 626 627 629 633 634 633 634 635 637 641 645 649 654 657 660 664 667 671 676 680 685 689 692 696 700 703 707 711 713
679 674 671 675 681 680 668 649 638 636 632 629 627 613 600 607 625 637 636 628 627 633 630 627 632 632 631 633 635 638 641 639 638 639 637 635 634 632 630 629 628 628 628 627 623 619 616 615 615 615 614 613 615 618 621 622 623 622 622 624 627 628 628 630 633 636 639 643 645 648 651 654 657 661 666 672 676 681 686 689 693 697 700 704 708 711
681 681 684 687 688 690 684 664 656 655 641 632 633 621 609 619 629 625 624 628 630 630 629 632 634 632 634 637 637 638 639 637 637 638 636 635 634 632 631 630 629 629 628 627 626 623 619 617 615 614 614 613 613 615 618 622 624 624 624 624 622 620 621 624 629 633 636 639 642 644 646 649 652 656 661 667 672 677 682 686 690 694 698 702 706 709
678 681 689 691 687 695 698 683 672 668 653 643 647 640 625 623 621 618 623 631 631 631 632 634 635 636 636 637 638 639 639 638 639 638 637 636 635 634 633 631 630 629 628 626 626 624 621 619 616 614 613 612 613 613 613 615 618 621 624 624 623 622 621 621 623 627 631 634 638 641 644 647 650 653 657 663 668 674 679 684 688 692 696 700 704 708
676 674 679 683 681 686 690 678 665 662 654 647 648 642 630 625 622 621 625 630 633 635 634 635 639 639 637 638 641 642 643 644 644 642 641 640 638 637 636 634 632 631 629 627 626 624 623 623 621 619 616 614 614 614 613 612 612 613 614 615 618 623 625 624 623 623 626 630 634 638 642 646 649 652 655 659 664 670 675 681 685 690 694 698 702 707
672 668 671 676 677 676 675 668 663 661 656 650 645 636 632 633 632 628 628 632 636 637 636 638 641 642 641 643 644 646 649 649 647 646 644 643 641 640 638 636 635 633 632 630 628 626 626 625 625 624 622 621 620 619 617 614 612 610 610 610 612 617 622 627 628 626 625 628 631 635 639 643 647 651 654 657 661 666 672 677 681 687 692 696 701 706
671 670 671 674 677 678 673 668 666 663 656 653 649 641 637 642 643 637 634 637 639 638 639 641 642 643 646 646 647 650 652 651 650 649 646 644 643 642 640 639 637 635 634 634 632 630 629 627 627 626 625 624 623 622 621 619 615 612 612 612 612 614 618 626 633 634 630 628 628 631 634 638 642 646 651 655 659 664 670 675 679 684 689 694 699 704
672 671 672 673 677 679 676 672 671 664 656 653 654 650 649 653 653 648 642 641 641 641 642 643 643 644 646 647 648 650 651 651 652 650 647 645 644 642 641 640 638 637 637 636 634 633 631 629 629 628 626 625 623 621 621 621 619 616 613 611 611 613 616 624 634 640 639 634 630 629 630 633 637 642 647 652 657 662 668 674 677 682 686 691 695 700
672 673 673 674 677 676 673 673 671 664 658 657 657 656 658 660 661 658 650 644 644 645 644 644 646 646 646 648 648 648 650 652 651 649 648 647 645 643 642 641 640 639 639 637 636 634 632 631 630 628 627 625 624 621 620 620 620 618 615 612 610 611 613 619 629 639 644 641 635 633 633 635 636 638 643 649 655 661 668 674 678 681 685 690 694 698
674 676 673 673 679 678 674 672 669 666 668 669 664 661 663 664 666 666 659 648 646 648 647 647 648 648 647 649 649 648 650 652 651 649 649 648 647 647 645 642 641 640 639 638 637 635 633 631 629 628 627 626 624 622 621 620 620 619 617 615 612 611 612 616 621 631 642 647 644 640 640 640 640 641 645 649 653 660 669 676 680 683 686 691 695 699
674 675 673 673 677 676 672 670 667 667 671 671 666 664 666 666 669 672 667 656 650 649 647 647 648 650 651 652 651 650 652 653 652 651 650 650 650 649 647 645 644 642 641 640 638 637 636 634 631 628 627 626 625 625 625 625 623 621 620 618 615 612 612 614 617 622 635 648 652 649 647 648 650 652 654 654 655 660 668 676 682 686 689 692 696 700